Location: Gloden
(48.4833°N, 15.3167°E)
Time: 02:27:10
(UTC+00:00)

ATLAS CENTAUR R/B - Pass Details

Date: 15 December 2019
Orbit: 454 x 694 km, 64.6° (Epoch: 20 January)

Event Time Altitude Azimuth Distance (km) Brightness Sun altitude
Exits shadow 03:06:29 13° 56° (NE) 1,647 4.3 -34.7°
Drops below altitude 10° 03:07:24 10° 67° (ENE) 1,837 4.7 -34.6°
Sets 03:10:11 0° 89° (E) 2,674 5.9 -34.1°
